TimeAKDT,TemperatureF,Dew PointF,Humidity,Sea Level PressureIn,VisibilityMPH,Wind Direction,Wind SpeedMPH,Gust SpeedMPH,PrecipitationIn,Events,Conditions,WindDirDegrees,DateUTC
12:53 AM,30.0,25.0,82,30.19,9.0,NNE,5.8,-,N/A,Snow,Light Snow,20,2013-10-23 08:53:00
1:53 AM,28.9,26.1,89,30.18,9.0,NNE,8.1,-,N/A,Snow,Light Snow,20,2013-10-23 09:53:00
2:53 AM,28.9,26.1,89,30.18,2.5,North,5.8,-,N/A,Snow,Light Snow,350,2013-10-23 10:53:00
3:22 AM,28.4,26.6,93,30.13,3.0,North,5.8,-,N/A,Snow,Light Snow,10,2013-10-23 11:22:00
3:36 AM,28.4,24.8,86,30.12,2.5,NNE,6.9,-,N/A,Snow,Light Snow,20,2013-10-23 11:36:00
3:53 AM,28.4,24.8,86,30.16,2.5,North,5.8,-,N/A,Snow,Light Snow,360,2013-10-23 11:53:00
4:06 AM,26.6,24.8,93,30.11,5.0,North,4.6,-,N/A,Snow,Light Snow,360,2013-10-23 12:06:00
4:53 AM,28.0,24.1,85,30.14,9.0,North,5.8,-,N/A,,Overcast,10,2013-10-23 12:53:00
5:53 AM,28.0,23.0,81,30.13,10.0,North,4.6,-,N/A,,Overcast,360,2013-10-23 13:53:00
6:53 AM,28.0,23.0,81,30.13,10.0,North,5.8,-,N/A,Snow,Light Snow,360,2013-10-23 14:53:00
7:53 AM,27.0,21.9,81,30.11,10.0,North,6.9,-,N/A,,Overcast,10,2013-10-23 15:53:00
8:53 AM,27.0,21.0,78,30.10,10.0,NNE,6.9,-,N/A,Fog,Overcast,20,2013-10-23 16:53:00
9:53 AM,25.0,19.9,81,30.09,10.0,North,6.9,-,N/A,,Mostly Cloudy,10,2013-10-23 17:53:00
10:53 AM,25.0,19.9,81,30.09,10.0,NNE,3.5,-,N/A,,Scattered Clouds,20,2013-10-23 18:53:00
11:53 AM,26.1,19.9,78,30.08,10.0,North,6.9,-,N/A,,Mostly Cloudy,10,2013-10-23 19:53:00
12:53 PM,26.1,19.9,78,30.07,10.0,North,5.8,-,N/A,,Mostly Cloudy,360,2013-10-23 20:53:00
1:53 PM,27.0,21.0,78,30.06,10.0,North,4.6,-,N/A,,Mostly Cloudy,360,2013-10-23 21:53:00
2:53 PM,26.1,19.9,78,30.04,10.0,NNE,6.9,-,N/A,,Scattered Clouds,30,2013-10-23 22:53:00
3:53 PM,27.0,19.9,75,30.02,10.0,NNE,5.8,-,N/A,,Scattered Clouds,20,2013-10-23 23:53:00
4:53 PM,26.1,21.0,81,30.01,10.0,Calm,Calm,-,N/A,,Partly Cloudy,0,2013-10-24 00:53:00
5:53 PM,26.1,21.0,81,30.01,10.0,NNW,3.5,-,N/A,,Partly Cloudy,340,2013-10-24 01:53:00
6:53 PM,24.1,19.9,84,30.00,10.0,North,3.5,-,N/A,,Partly Cloudy,10,2013-10-24 02:53:00
7:53 PM,21.9,18.0,85,30.00,10.0,Calm,Calm,-,N/A,,Partly Cloudy,0,2013-10-24 03:53:00
8:53 PM,16.0,14.0,92,30.01,10.0,Calm,Calm,-,N/A,,Partly Cloudy,0,2013-10-24 04:53:00
9:53 PM,14.0,10.9,88,30.03,10.0,Calm,Calm,-,N/A,,Partly Cloudy,0,2013-10-24 05:53:00
10:53 PM,14.0,10.9,88,30.04,10.0,Calm,Calm,-,N/A,,Partly Cloudy,0,2013-10-24 06:53:00
11:53 PM,10.9,8.1,88,30.05,10.0,Calm,Calm,-,N/A,,Clear,0,2013-10-24 07:53:00